[Iaude] MPEC X285: 2023 FO13 [a=1.20,e=0.28,i=32.4,H=20.89]

mpec at marsden.cfa.harvard.edu mpec at marsden.cfa.harvard.edu
Thu Dec 14 09:11:46 EST 2023


M.P.E.C. 2023-X285                            Issued 2023 December 14, 14:10 UT

     The Minor Planet Electronic Circulars contain information on unusual
         minor planets, routine data on comets and natural satellites,
         and occasional editorial announcements.  They are published
    on behalf of Division F of the International Astronomical Union by the
          Minor Planet Center, Smithsonian Astrophysical Observatory,
                          Cambridge, MA 02138, U.S.A.
			  
             Prepared using the Tamkin Foundation Computer Network

                              MPC at CFA.HARVARD.EDU
            URL https://www.minorplanetcenter.net/    ISSN 1523-6714

                                   2023 FO13                                    


                           Revision to MPEC 2023-G02                            

Additional Observations:
     K23F13O  C2014 02 28.55384215 51 57.747-08 57 44.51         22.72GVEX285F51
     K23F13O  C2014 02 28.56578515 51 59.344-08 57 25.39         21.61GVEX285F51
     K23F13O  C2014 02 28.58964315 52 02.463-08 56 46.16         22.74GVEX285F51
     K23F13O  C2014 05 19.52115018 52 30.267+62 33 28.08         21.63GVEX285F51
     K23F13O  C2014 05 19.53512318 52 32.548+62 34 05.68         21.98GVEX285F51
     K23F13O  C2014 05 19.54906618 52 34.838+62 34 42.62         21.58GVEX285F51
     K23F13O  C2014 05 19.56301818 52 37.098+62 35 20.13         22.23GVEX285F51
     K23F13O  C2014 05 26.53680219 15 10.952+67 23 31.01         21.90GVEX285F51
     K23F13O  C2014 05 26.54959519 15 13.528+67 24 00.53         21.85GVEX285F51
     K23F13O  C2014 05 26.56284919 15 16.110+67 24 31.01         21.87GVEX285F51
     K23F13O  C2014 05 26.57561019 15 18.661+67 25 00.10         22.19GVEX285F51
     K23F13O 0C2023 12 12.21088922 07 42.973-33 59 21.70         22.87GVEX285T12
     K23F13O 0C2023 12 12.21567822 07 44.624-33 59 25.35         22.62GVEX285T12
     K23F13O 0C2023 12 12.22009022 07 46.148-33 59 28.71         22.74GVEX285T12

Observer details:
F51 Pan-STARRS 1, Haleakala.  Observers J. Herman, T. Lowe, P. Minguez, A.
    Schultz, I. Smith.  Measurers K. Chambers, T. de Boer, J. Fairlamb, H.
    Gao, M. Huber, C.-C. Lin, E. Magnier, Y. Ramanjooloo, R. Wainscoat, R.
    Weryk.  1.8-m Ritchey-Chretien + CCD.
T12 University of Hawaii 88-inch telescope, Maunakea.  Observer D. J. Tholen.
    2.24-m f/10.1 reflector + 2112 x 2112 pixels STA1600 10k CCD.

First and last observations above in comparison with prediction:
Residuals in seconds of arc (or two decimals in degrees), reference and Delta-T
140228 F51 0.10- 0.03-    231212 T12 0.00- 0.00-    MPO750185   -0.01 days

Orbital elements:
2023 FO13                                                Earth MOID = 0.1205 AU
Epoch 2023 Sept. 13.0 TT = JDT 2460200.5                Veres                   
M 324.37149              (2000.0)            P               Q                  
n   0.74899749     Peri.  158.48533     +0.95252992     +0.30126904             
a   1.2008326      Node   184.69230     -0.29146438     +0.94402280             
e   0.2783921      Incl.   32.42257     +0.08795042     -0.13437976             
P   1.32           H   20.89          G   0.15           U   1                  
Residuals in seconds of arc
140228 F51  0.1+  0.3+    230327 F51  0.1+  0.2-    230401 807  0.1-  0.3-
140228 F51  0.4+  0.0     230328 807  0.0   0.1+    230401 807  0.1+  0.1-
140228 F51  0.1+  0.2+    230328 807  0.0   0.2-    230401 807  0.0   0.1+
140519 F51  0.2-  0.0     230328 807  0.1-  0.1-    230410 H21  0.5-  0.2+
140519 F51  0.1-  0.1+    230328 H21  0.2+  0.2+    230410 H21  0.3-  0.2-
140519 F51  0.0   0.3-    230328 H21  0.2-  0.5+    230410 291  0.1-  0.3+
140519 F51  0.0   0.0     230328 H21  0.3+  0.2+    230410 291  0.1+  0.2-
140526 F51  0.1+  0.0     230328 691  0.0   0.2+    230410 291  0.0   0.4-
140526 F51  0.3+  0.0     230328 691  0.1-  0.1-    230411 H21  0.1+  0.1-
140526 F51  0.1-  0.0     230328 691  0.0   0.4+    230411 H21  0.1-  0.4+
140526 F51  0.0   0.1-    230329 H21  0.1-  0.5+    230412 H21  0.3-  0.2+
230327 F51  0.0   0.2+    230329 H21  0.4-  0.5+    230412 H21  0.0   0.3+
230327 F51  0.0   0.1+    230329 695  0.0   0.2-    231212 T12  0.1+  0.1+
230327 F51  0.2-  0.2-    230329 695  0.0   0.3-    231212 T12  0.1+  0.1+
230327 F51  0.1+  0.2-    230329 695  0.1+  0.1-    231212 T12  0.2+  0.1+

Ephemeris:
2023 FO13                a,e,i = 1.20, 0.28, 32                  q = 0.8665
Date    TT    R. A. (2000) Decl.     Delta      r    Elong.  Phase     V
2023 11 14    19 23 22.7 -20 57 40   0.7636  0.8778    58.4    73.8    22.6
...
2023 11 29    20 49 47.4 -29 28 36   0.7608  0.9114    61.3    71.7    22.6
...
2023 12 07    21 37 10.4 -32 35 40   0.7763  0.9367    62.9    69.5    22.6
...
2023 12 13    22 12 17.6 -34 09 13   0.7937  0.9584    64.2    67.6    22.7
2023 12 14    22 18 04.1 -34 20 55   0.7970  0.9622    64.4    67.3    22.7
2023 12 15    22 23 48.8 -34 31 32   0.8003  0.9660    64.6    67.0    22.7
...
2023 12 21    22 57 34.2 -35 13 09   0.8223  0.9900    65.8    65.0    22.7
...
2023 12 29    23 40 13.5 -35 14 55   0.8551  1.0239    67.3    62.4    22.8
...
2024 01 13    00 51 56.1 -33 06 03   0.9227  1.0909    69.7    57.8    23.0

A. U. Tomatic                (C) Copyright 2023 MPC           M.P.E.C. 2023-X285





More information about the Iaude mailing list